Tracking 22879 objects as of 21-Apr-2021
HD Live streaming from Space Station
objects crossing your sky now

DELTA 1 DEB

Track DELTA 1 DEB now!
10-day predictions


NORAD ID: 7200
Int'l Code: 1973-086FJ
Perigee: 1,446.6 km
Apogee: 1,918.0 km
Inclination: 102.5 °
Period: 119.9 minutes
Semi major axis: 8053 km
RCS: 0.0922 m2 (small)
Launch date: November 6, 1973
Source: United States (US)
Launch site: AIR FORCE WESTERN TEST RANGE (AFWTR)

Note: This is SATELLITE DEBRIS
aabbcc
Your satellite tracking list
Your tracking list is empty




NASA's NSSDC Master Catalog

Two Line Element Set (TLE):
1 07200U 73086FJ  21110.77676072  .00000186  00000-0  24696-2 0  9994
2 07200 102.4645 169.0341 0292714 311.1069 176.3722 12.01274771 76095
Source of the keplerian elements: AFSPC